Flag for Bosnia-Herzegovina Weather past 2 weeks in Mostar, Bosnia-Herzegovina

Now
77 °F

Sunny.


Feels Like: 79 °F
Forecast: 54 / 92 °F
Wind: 2 mph from North

Location: Mostar

Current Time: May 5, 2015 at 12:14:17 PM

Latest Report: May 5, 2015 at 11:30 AM


Visibility: 10 mi

Pressure: 29.98 "Hg

Humidity: 57%

Dew point: 61 °F

Location of MostarLocation

Historic Weather in Mostar — Graph

°F

Mostar temperature yesterday

Maximum temperature yesterday: 79 °F (at 2:00 PM)
Minimum temperature yesterday: 59 °F (at 5:00 AM)
Average temperature yesterday: 69 °F

Past Weeks' High & Low Weather Summary

 TemperatureHumidityPressure
High79 °F (May 4, 2:00 PM)100% (Apr 25, 6:00 AM)30.12 "Hg (Apr 25, 6:00 AM)
Low43 °F (Apr 23, 6:00 AM)16% (Apr 21, 3:30 PM)29.62 "Hg (Apr 28, 4:30 AM)
Average61 °F62%29.96 "Hg
* Reported Apr 20 11:00 AM — May 5 11:00 AM, Mostar, Weather by CustomWeather, © 2015

Note: Actual official high and low records may vary slightly from our data, if they occured in-between our weather recording intervals... More about our weather records

Advertising

Mostar weather history for previous 24 hours

 ConditionsComfort  
Time TempWeatherWind HumidityBarometerVisibility
11:00 AM
Tue, May 5
73 °FSunny.2 mph61%29.98 "Hg10 mi
10:30 AM73 °FSunny.2 mph61%29.98 "Hg10 mi
10:00 AM72 °FSunny.2 mph65%29.98 "Hg10 mi
9:30 AM70 °FSunny.2 mph64%29.98 "Hg10 mi
9:00 AM68 °FSunny.2 mph69%29.98 "Hg10 mi
8:30 AM64 °FPassing clouds.3 mph78%29.98 "HgN/A
8:00 AM63 °FSunny.2 mph83%29.98 "Hg10 mi
7:30 AM59 °FSunny.1 mph88%29.98 "Hg10 mi
7:00 AM59 °FSunny.1 mph88%29.98 "Hg10 mi
6:30 AM55 °FClear.3 mph94%29.98 "Hg10 mi
6:00 AM54 °FPassing clouds.3 mph94%29.95 "HgN/A
5:00 AM55 °FPassing clouds.3 mph94%29.98 "HgN/A
4:00 AM57 °FClear.2 mph88%29.98 "Hg10 mi
3:00 AM57 °FClear.2 mph94%29.98 "Hg10 mi
2:00 AM59 °FClear.3 mph88%29.98 "Hg10 mi
1:00 AM61 °FClear.3 mph88%29.98 "Hg10 mi
12:00 AM64 °FClear.2 mph83%29.98 "Hg10 mi
11:00 PM
Mon, May 4
64 °FClear.2 mph83%29.98 "Hg10 mi
10:00 PM66 °FLight rain. Passing clouds.1 mph73%29.98 "HgN/A
9:30 PM66 °FPassing clouds.3 mph73%29.98 "HgN/A
9:00 PM68 °FClear.2 mph73%29.95 "Hg10 mi
8:30 PM68 °FPassing clouds.3 mph73%29.95 "HgN/A
8:00 PM70 °FSunny.2 mph60%29.95 "Hg10 mi
7:30 PM72 °FSunny.2 mph57%29.95 "Hg10 mi
7:00 PM73 °FSunny.2 mph53%29.95 "Hg10 mi
6:30 PM73 °FSunny.5 mph53%29.95 "Hg10 mi
6:00 PM75 °FPassing clouds.6 mph47%29.95 "HgN/A
5:30 PM75 °FPassing clouds.7 mph47%29.95 "HgN/A
5:00 PM75 °FPassing clouds.6 mph47%29.95 "HgN/A
4:30 PM75 °FPassing clouds.7 mph47%29.95 "HgN/A
4:00 PM75 °FPassing clouds.5 mph47%29.95 "HgN/A
3:30 PM75 °FPassing clouds.6 mph47%29.95 "HgN/A
3:00 PM79 °FPassing clouds.3 mph45%29.95 "HgN/A
2:30 PM79 °FPassing clouds.2 mph45%29.95 "HgN/A
2:00 PM79 °FPassing clouds.6 mph42%29.95 "HgN/A
1:30 PM77 °FPassing clouds.3 mph47%29.98 "HgN/A
1:00 PM75 °FPassing clouds.3 mph50%29.98 "HgN/A
12:00 PM72 °FPassing clouds.2 mph57%29.98 "HgN/A
Weather by CustomWeather, © 2015

See weather overviewHow to use our weather pages